FENGYUN 1C DEB, 30141

Orbit data source: Space-Track

FENGYUN 1C DEB, 30141 is space debris in SSO originally from a launch on Mon, 10 May 1999 UTC launched from the Taiyaun Space Center, China (TSC). Fengyun 1C debris stems from the Chinese weather satellite Fengyun-1C, which was intentionally destroyed by a Chinese anti-satellite missile in 2007. This event dramatically increased the amount of space debris, with thousands of trackable fragments posing hazards to satellites and human spaceflight. The Fengyun 1C debris cloud has become a focal point in discussions about space sustainability and the need for international regulations to prevent the creation of new debris.

Loading next visibility...
Identifier
30141, 1999-025SW
Orbit
SSO
Country
Flag of CNCN / PRC
Related business
Manufacturer
Unknown
Mission
Spacecraft
Bus & Motor
Unknown
Mass
Unknown
Launch date (UTC)
1999-05-10 (27 years ago)
Launch vehicle
Unknown
Launch site
Taiyaun Space Center, China (TSC)
Object type
Payload
Rocket body
Debris
Shape & HBR
Unknown shape, 0.1 m
Radar Cross Section
Small (<0.1 m²)

Expand to show TLE details & history
Last TLE update: 22 hours ago

TLE from 22 hours ago
0 FENGYUN 1C DEB
1 30141U 99025SW  26145.50721115  .00007351  00000-0  17162-2 0  9999
2 30141  99.0174  84.6433 0013177 268.3623  91.6062 14.54986877  6186
Epoch: 2026-05-25T12:10Z
TLE epoch observation values (Epoch: 2026-05-25T12:10:23.043Z)
Latitude
-0.00006°
Longitude
18.95328°
Altitude
712.633 km
Speed
7.499 km/s
True Right ascension
05h 38m 34s
True Declination
0° 00' 00"
Sunlit
Object was in daylight at epoch
Visualization orbit readout
Latitude
Unknown
Longitude
Unknown
Altitude
Unknown
Speed
Unknown
Apparent Right ascension
Unknown
Apparent Declination
Unknown
Sunlit
N/A
Visualization observer readout
Local Sidereal Time
19:07:29
Azimuth
Unknown
Elevation
Unknown
Doppler factor
Unknown
Orbital elements
Apogee altitude
715.87 km
Perigee altitude
697.199 km
Semi-major axis
7,084.672 km
Eccentricity
0.00132
Inclination
99.0174°
RAAN
84.6433°
Arg. of periapsis
268.3623°
True anomaly
91.75713°
Mean anomaly
91.6062°
Eccentric anomaly
91.68167°
Mean motion
3.63968 °/min
Orbital period
98.91 mins
BSTAR
0.0017162
Loading maneuver chart data...
Computing Atmospheric mass density...

Documentation

Showing up to 5 results
|